Location: San Antonio
(29.4240°N, 98.4930°W)
Time: 04:01:46
(UTC-05:00)

Vanguard 1 Rocket - Visible Passes

Search period start: 15 July 2024 00:00
Search period end: 25 July 2024 00:00
Orbit: 650 x 4219 km, 34.3° (Epoch: 14 July)

Date Brightness Start Highest point End Pass type
(mag) Time Alt. Az. Time Alt. Az. Time Alt. Az.
15 Jul 8.7 01:46:57 10° WNW 01:55:06 89° NNE 02:11:52 10° ESE visible
15 Jul 9.7 04:12:08 10° W 04:23:39 47° SSW 04:44:12 10° SE visible
15 Jul 7.7 22:11:22 10° W 22:16:02 62° N 22:23:25 10° ENE visible
16 Jul 8.3 00:35:38 10° WNW 00:42:14 72° NNE 00:55:16 10° E visible
16 Jul 9.2 03:00:00 10° WNW 03:10:20 61° SSW 03:28:41 10° SE visible
16 Jul 10.5 05:27:53 11° W 05:39:25 27° SW 05:57:05 10° SSE visible
16 Jul 7.0 20:59:48 10° WSW 21:04:10 83° NNW 21:09:55 10° ENE visible
16 Jul 8.1 23:24:21 10° WNW 23:29:45 60° N 23:33:48 31° ENE visible
17 Jul 9.5 01:48:25 10° WNW 02:05:24 28° ESE 02:12:32 10° ESE visible
17 Jul 9.8 04:22:52 37° SW 04:24:49 38° SSW 04:43:26 10° SSE visible
17 Jul 7.8 22:12:57 10° W 22:17:33 55° N 22:24:40 10° ENE visible
18 Jul 8.3 00:37:06 10° WNW 00:59:51 - ESE 00:41:58 61° NW visible
18 Jul 10.1 03:17:17 35° SSE 03:17:17 35° SSE 03:28:32 10° SE visible
18 Jul 10.4 05:34:42 17° WSW 05:40:42 20° SSW 05:54:47 10° S visible
18 Jul 7.2 21:01:17 10° W 21:05:38 65° NNW 21:11:11 10° ENE visible
18 Jul 8.0 23:25:53 10° WNW 23:31:12 63° NNE 23:33:14 46° ENE visible
19 Jul 10.0 01:49:54 10° WNW 02:11:19 13° SE 02:12:59 10° SE visible
19 Jul 10.3 04:28:42 28° SSW 04:28:42 28° SSW 04:42:12 10° SSE visible
19 Jul 7.8 22:14:31 10° WNW 22:19:04 52° N 22:24:37 15° ENE visible
20 Jul 8.8 00:38:34 10° WNW 00:41:46 38° WNW 00:41:46 38° WNW visible
20 Jul 10.8 03:22:24 21° SSE 03:22:24 21° SSE 03:28:04 10° SSE visible
20 Jul 10.8 05:39:46 14° SW 05:42:10 14° SSW 05:51:02 10° S visible
20 Jul 7.5 21:02:50 10° W 21:07:07 54° N 21:12:28 10° ENE visible
20 Jul 7.7 23:27:21 10° WNW 23:32:36 69° NNE 23:33:15 65° NE visible
21 Jul10.402:15:52SE02:15:52SE01:50:24WNWvisible
21 Jul 10.8 04:33:12 18° S 04:33:12 18° S 04:40:22 10° S visible
21 Jul 7.7 22:16:03 10° WNW 22:20:34 53° N 22:24:47 20° ENE visible
22 Jul 9.3 00:40:02 10° WNW 00:41:57 24° WNW 00:41:57 24° WNW visible
22 Jul 11.2 03:26:26 11° SSE 03:26:26 11° SSE 03:27:14 10° SSE visible
22 Jul 7.6 21:04:23 10° W 21:08:37 49° N 21:13:48 10° ENE visible
22 Jul 7.6 23:28:48 10° WNW 23:33:33 76° NNW 23:33:33 76° NNW visible
23 Jul 11.2 04:36:45 11° S 04:36:45 11° S 04:37:22 10° S visible
23 Jul 7.5 22:17:31 10° WNW 22:22:01 58° NNE 22:25:11 27° E visible
24 Jul 9.7 00:41:32 10° WNW 00:42:21 15° W 00:42:21 15° W visible
24 Jul 7.6 21:05:54 10° WNW 21:10:08 47° N 21:15:12 10° ENE visible
24 Jul 7.8 23:30:14 10° WNW 23:34:00 56° W 23:34:00 56° W visible
